• In Schweiz
  • Länderverzeichnis
  • Für 7 Tage
  • Wassertemperatur
  • Satellitenkarten
  • Wetterkarte
  • Widgets
  • user-avatar
    Anmelden

    Stündliche Wetter Obock

    Heute, 21 Juni, Donnerstag

    Zeit Temperatur Niederschläge Wind Luftdruck Luftfeuchtigkeit
    00:00 +40°C° 0 mm 4 m/S 751 mmHg 30%
    01:00 +40°C° 0 mm 4 m/S 751 mmHg 32%
    02:00 +38°C° 0 mm 4 m/S 751 mmHg 33%
    03:00 +37°C° 0 mm 2 m/S 751 mmHg 36%
    04:00 +37°C° 0 mm 2 m/S 751 mmHg 36%
    05:00 +37°C° 0 mm 2 m/S 751 mmHg 36%
    06:00 +37°C° 0 mm 2 m/S 752 mmHg 36%
    07:00 +38°C° 0 mm 2 m/S 752 mmHg 32%
    08:00 +40°C° 0 mm 2 m/S 752 mmHg 27%
    09:00 +41°C° 0 mm 2 m/S 752 mmHg 23%
    10:00 +43°C° 0 mm 3 m/S 752 mmHg 21%
    11:00 +44°C° 0 mm 4 m/S 752 mmHg 19%
    12:00 +45°C° 0 mm 4 m/S 752 mmHg 17%
    13:00 +47°C° 0 mm 5 m/S 751 mmHg 18%
    14:00 +47°C° 0 mm 5 m/S 751 mmHg 18%
    15:00 +47°C° 0 mm 6 m/S 750 mmHg 19%
    16:00 +46°C° 0 mm 6 m/S 750 mmHg 22%
    17:00 +45°C° 0 mm 7 m/S 750 mmHg 25%
    18:00 +44°C° 0 mm 8 m/S 750 mmHg 28%
    19:00 +43°C° 0 mm 8 m/S 750 mmHg 30%
    20:00 +41°C° 0 mm 8 m/S 750 mmHg 33%
    21:00 +41°C° 0 mm 8 m/S 750 mmHg 36%
    22:00 +41°C° 0 mm 7 m/S 750 mmHg 33%
    23:00 +41°C° 0 mm 6 m/S 750 mmHg 31%

    Morgen, 22 Juni, Freitag

    Zeit Temperatur Niederschläge Wind Luftdruck Luftfeuchtigkeit
    00:00 +41°C° 0 mm 6 m/S 750 mmHg 28%
    01:00 +40°C° 0 mm 5 m/S 750 mmHg 29%
    02:00 +40°C° 0 mm 4 m/S 750 mmHg 30%
    03:00 +39°C° 0 mm 3 m/S 750 mmHg 30%
    04:00 +38°C° 0 mm 3 m/S 750 mmHg 29%
    05:00 +38°C° 0 mm 3 m/S 750 mmHg 29%
    06:00 +38°C° 0 mm 3 m/S 750 mmHg 28%
    07:00 +40°C° 0 mm 4 m/S 750 mmHg 24%
    08:00 +42°C° 0 mm 4 m/S 750 mmHg 21%
    09:00 +45°C° 0 mm 5 m/S 750 mmHg 18%
    10:00 +46°C° 0 mm 5 m/S 750 mmHg 17%
    11:00 +47°C° 0 mm 6 m/S 750 mmHg 16%
    12:00 +48°C° 0 mm 6 m/S 750 mmHg 15%
    13:00 +48°C° 0 mm 6 m/S 749 mmHg 15%
    14:00 +48°C° 0 mm 6 m/S 749 mmHg 15%
    15:00 +48°C° 0 mm 6 m/S 748 mmHg 15%
    16:00 +47°C° 0 mm 6 m/S 748 mmHg 19%
    17:00 +46°C° 0 mm 7 m/S 748 mmHg 24%
    18:00 +44°C° 0 mm 7 m/S 748 mmHg 28%
    19:00 +44°C° 0 mm 7 m/S 748 mmHg 31%
    20:00 +42°C° 0 mm 6 m/S 749 mmHg 33%
    21:00 +41°C° 0 mm 6 m/S 749 mmHg 36%
    22:00 +41°C° 0 mm 5 m/S 749 mmHg 35%
    23:00 +41°C° 0 mm 5 m/S 749 mmHg 34%

    übermorgen, 23 Juni, Samstag

    Zeit Temperatur Niederschläge Wind Luftdruck Luftfeuchtigkeit
    00:00 +40°C° 0 mm 5 m/S 749 mmHg 34%
    01:00 +40°C° 0 mm 4 m/S 749 mmHg 34%
    02:00 +39°C° 0 mm 3 m/S 749 mmHg 35%
    03:00 +39°C° 0 mm 3 m/S 748 mmHg 36%
    04:00 +38°C° 0 mm 3 m/S 749 mmHg 36%
    05:00 +38°C° 0 mm 2 m/S 749 mmHg 37%
    06:00 +38°C° 0 mm 2 m/S 749 mmHg 38%
    07:00 +39°C° 0 mm 3 m/S 750 mmHg 36%
    08:00 +39°C° 0 mm 3 m/S 750 mmHg 34%
    09:00 +40°C° 0 mm 3 m/S 751 mmHg 33%
    10:00 +43°C° 0 mm 3 m/S 751 mmHg 29%
    11:00 +44°C° 0 mm 4 m/S 751 mmHg 25%
    12:00 +45°C° 0 mm 4 m/S 751 mmHg 21%
    13:00 +45°C° 0 mm 4 m/S 750 mmHg 22%
    14:00 +45°C° 0 mm 4 m/S 749 mmHg 24%
    15:00 +45°C° 0 mm 4 m/S 748 mmHg 26%
    16:00 +44°C° 0 mm 4 m/S 748 mmHg 31%
    17:00 +42°C° 0 mm 4 m/S 748 mmHg 35%
    18:00 +40°C° 0 mm 3 m/S 748 mmHg 40%
    19:00 +40°C° 0 mm 3 m/S 748 mmHg 38%
    20:00 +40°C° 0 mm 2 m/S 749 mmHg 37%
    21:00 +40°C° 0 mm 1 m/S 749 mmHg 35%
    22:00 +40°C° 0 mm 1 m/S 749 mmHg 35%
    23:00 +39°C° 0 mm 1 m/S 749 mmHg 35%

    24 Juni, Sonntag

    Zeit Temperatur Niederschläge Wind Luftdruck Luftfeuchtigkeit
    00:00 +39°C° 0 mm 1 m/S 749 mmHg 34%
    01:00 +39°C° 0 mm 1 m/S 749 mmHg 35%
    02:00 +37°C° 0 mm 1 m/S 748 mmHg 36%
    03:00 +37°C° 0 mm 1 m/S 748 mmHg 37%
    04:00 +36°C° 0 mm 1 m/S 749 mmHg 38%
    05:00 +36°C° 0 mm 1 m/S 749 mmHg 39%
    06:00 +36°C° 0 mm 1 m/S 749 mmHg 39%
    07:00 +38°C° 0 mm 2 m/S 750 mmHg 36%
    08:00 +39°C° 0 mm 2 m/S 751 mmHg 33%
    09:00 +40°C° 0 mm 3 m/S 751 mmHg 30%
    10:00 +41°C° 0 mm 2 m/S 751 mmHg 28%
    11:00 +42°C° 0 mm 2 m/S 751 mmHg 25%
    12:00 +43°C° 0 mm 2 m/S 750 mmHg 23%
    13:00 +43°C° 0 mm 2 m/S 750 mmHg 22%
    14:00 +45°C° 0 mm 2 m/S 749 mmHg 20%
    15:00 +46°C° 0 mm 3 m/S 748 mmHg 18%
    16:00 +45°C° 0 mm 4 m/S 748 mmHg 22%
    17:00 +45°C° 0 mm 6 m/S 748 mmHg 25%
    18:00 +44°C° 0 mm 7 m/S 749 mmHg 28%
    19:00 +43°C° 0 mm 7 m/S 749 mmHg 30%
    20:00 +41°C° 0 mm 6 m/S 750 mmHg 32%
    21:00 +41°C° 0 mm 6 m/S 750 mmHg 34%
    22:00 +40°C° 0 mm 6 m/S 750 mmHg 37%
    23:00 +40°C° 0 mm 6 m/S 750 mmHg 39%

    25 Juni, Montag

    Zeit Temperatur Niederschläge Wind Luftdruck Luftfeuchtigkeit
    00:00 +40°C° 0 mm 6 m/S 750 mmHg 42%
    01:00 +39°C° 0 mm 6 m/S 750 mmHg 45%
    02:00 +39°C° 0 mm 6 m/S 750 mmHg 48%
    03:00 +37°C° 0 mm 5 m/S 750 mmHg 51%
    04:00 +37°C° 0,1 mm 4 m/S 750 mmHg 49%
    05:00 +37°C° 0,1 mm 4 m/S 750 mmHg 46%
    06:00 +37°C° 0,1 mm 3 m/S 751 mmHg 44%
    07:00 +38°C° 0 mm 3 m/S 751 mmHg 40%
    08:00 +39°C° 0 mm 3 m/S 751 mmHg 35%
    09:00 +41°C° 0 mm 4 m/S 752 mmHg 31%
    10:00 +40°C° 0 mm 3 m/S 751 mmHg 28%
    11:00 +42°C° 0 mm 3 m/S 751 mmHg 26%
    12:00 +42°C° 0 mm 2 m/S 751 mmHg 23%
    13:00 +44°C° 0 mm 3 m/S 750 mmHg 22%
    14:00 +45°C° 0 mm 3 m/S 749 mmHg 21%
    15:00 +45°C° 0 mm 3 m/S 749 mmHg 20%
    16:00 +45°C° 0 mm 4 m/S 749 mmHg 22%
    17:00 +45°C° 0 mm 5 m/S 749 mmHg 24%
    18:00 +44°C° 0 mm 6 m/S 749 mmHg 26%
    19:00 +42°C° 0,1 mm 6 m/S 749 mmHg 29%
    20:00 +41°C° 0,1 mm 6 m/S 750 mmHg 31%
    21:00 +41°C° 0,1 mm 7 m/S 750 mmHg 33%
    22:00 +40°C° 0 mm 6 m/S 750 mmHg 34%
    23:00 +40°C° 0 mm 5 m/S 750 mmHg 35%

    26 Juni, Dienstag

    Zeit Temperatur Niederschläge Wind Luftdruck Luftfeuchtigkeit
    00:00 +40°C° 0 mm 5 m/S 750 mmHg 35%
    01:00 +38°C° 0 mm 4 m/S 750 mmHg 36%
    02:00 +38°C° 0 mm 4 m/S 749 mmHg 38%
    03:00 +38°C° 0 mm 3 m/S 749 mmHg 39%
    04:00 +37°C° 0 mm 3 m/S 750 mmHg 39%
    05:00 +37°C° 0 mm 2 m/S 750 mmHg 40%
    06:00 +37°C° 0 mm 2 m/S 751 mmHg 41%
    07:00 +38°C° 0 mm 2 m/S 751 mmHg 37%
    08:00 +39°C° 0 mm 2 m/S 751 mmHg 33%
    09:00 +40°C° 0 mm 2 m/S 752 mmHg 28%
    10:00 +41°C° 0 mm 2 m/S 751 mmHg 26%
    11:00 +42°C° 0 mm 2 m/S 751 mmHg 23%
    12:00 +43°C° 0 mm 2 m/S 750 mmHg 20%
    13:00 +45°C° 0 mm 3 m/S 750 mmHg 20%
    14:00 +45°C° 0 mm 4 m/S 749 mmHg 20%
    15:00 +47°C° 0 mm 4 m/S 748 mmHg 19%
    16:00 +45°C° 0 mm 4 m/S 748 mmHg 22%
    17:00 +45°C° 0 mm 5 m/S 748 mmHg 24%
    18:00 +43°C° 0 mm 5 m/S 748 mmHg 27%
    19:00 +42°C° 0 mm 5 m/S 749 mmHg 29%
    20:00 +42°C° 0 mm 5 m/S 749 mmHg 31%
    21:00 +41°C° 0 mm 5 m/S 750 mmHg 33%
    22:00 +41°C° 0 mm 4 m/S 749 mmHg 33%
    23:00 +41°C° 0 mm 4 m/S 749 mmHg 33%
    Mehr zeigen